Weather Service Report


398 
ASUS44 KSJT 281211
RWRSJT
WEST CENTRAL TEXAS REGIONAL WEATHER ROUNDUP
NATIONAL WEATHER SERVICE SAN ANGELO TX
700 AM CDT SUN AUG 28 2016

NOTE: "FAIR" INDICATES FEW OR NO CLOUDS BELOW 12,000 FEET WITH NO
SIGNIFICANT WEATHER AND/OR OBSTRUCTIONS TO VISIBILITY.

TXZ049-054-064>066-071>073-076>078-098-099-113-114-127-128-139-140-
154-155-168>170-281300
...LOCATIONS ACROSS WEST CENTRAL TEXAS...
  
CITY           SKY/WX    TMP DP  RH WIND       PRES   REMARKS
SAN ANGELO     CLOUDY    69  66  90 CALM      30.07R                  
ABILENE        CLEAR     71  69  93 SE6       30.08R                  
DYESS AFB      CLEAR     71  69  95 SE5       30.07R                  
JUNCTION       CLEAR     70  68  93 CALM      30.06R                  
SWEETWATER     CLEAR     69  67  93 SW3       30.12R                  
BROWNWOOD      MOCLDY    68  68 100 CALM      30.07R                  
COLEMAN        PTSUNNY   73  68  86 E3        30.08R                  
SONORA         CLEAR     68  68 100 CALM      30.12R                  
OZONA          FAIR      68  64  88 CALM      30.12R                  
BRADY          NOT AVBL                                               
$$

TEXAS PANHANDLE/OKLAHOMA PANHANDLE
  
CITY           SKY/WX    TMP DP  RH WIND       PRES   REMARKS
AMARILLO       CLOUDY    66  62  87 S8        30.14F                  
BORGER         CLOUDY    66  63  90 SE5       30.12F                  
CANADIAN       CLOUDY    66  65  94 SE6       30.12S                  
DALHART        MOCLDY    62  58  86 E5        30.18R                  
DUMAS          CLOUDY    63  62  97 CALM      30.16R FOG              
GUYMON         NOT AVBL                                               
HEREFORD       CLOUDY    65  62  91 NE3       30.16R                  
PAMPA          CLOUDY    65  63  94 E7        30.14F                  
PERRYTON       PTCLDY    65  63  93 SE14      30.08F                  
$$

SOUTHERN PANHANDLE/SOUTH PLAINS/ROLLING PLAINS
  
CITY           SKY/WX    TMP DP  RH WIND       PRES   REMARKS
LUBBOCK        CLOUDY    65  60  84 NW5       30.15R                  
SNYDER           N/A     70  67  90 CALM      30.11R                  
CHILDRESS      CLEAR     68  65  90 CALM      30.10R                  
SEMINOLE       CLOUDY    67  59  74 N5        30.17R                  
$$

PERMIAN BASIN
  
CITY           SKY/WX    TMP DP  RH WIND       PRES   REMARKS
MIDLAND        PTCLDY    70  64  81 SE7       30.10R                  
ODESSA         CLOUDY    70  63  78 SE6       30.11R                  
WINK           CLOUDY    71  64  78 E9        30.07R                  
$$

FAR WEST/SOUTHWEST MOUNTAINS/TRANS PECOS
  
CITY           SKY/WX    TMP DP  RH WIND       PRES   REMARKS
ALPINE         SUNNY     63  59  88 SW6       30.23R                  
DRYDEN           N/A     70  68  93 N5        30.04R                  
EL PASO        PTCLDY    67  62  84 CALM      30.13R                  
FORT STOCKTON  MOCLDY    69  62  78 SE8       30.09R                  
GUADALUPE PASS CLOUDY    64  56  75 NE14      30.24R                  
MARFA          MOCLDY   N/A N/A N/A W3        30.22R                  
PECOS          SUNNY     69  64  85 CALM      30.07R                  
$$

DALLAS/FORT WORTH METROPLEX
  
CITY           SKY/WX    TMP DP  RH WIND       PRES   REMARKS
DFW AIRPORT    PTCLDY    74  69  85 E5        30.04R                  
FTW MEACHAM    CLEAR     76  70  82 CALM      30.05R                  
DAL-EXECUTIVE  CLEAR     72  70  93 CALM      30.05R                  
GRAND PRAIRIE  CLEAR     73  72  94 CALM      30.06R                  
ADDISON        CLEAR     75  72  88 CALM      30.07R                  
MESQUITE       SUNNY     70  70 100 CALM      30.05R                  
LANCASTER      SUNNY     71  68  91 CALM      30.06R                  
$$

NORTH CENTRAL TEXAS
  
CITY           SKY/WX    TMP DP  RH WIND       PRES   REMARKS
SHRMAN/DENISON SUNNY     73  73 100 CALM      30.08R                  
GAINESVILLE      N/A     71  69  95 CALM      30.09R                  
BRIDGEPORT     SUNNY     69  69 100 CALM      30.08R                  
DENTON         CLEAR     72  70  93 SW3       30.06R                  
WAXAHACHIE     SUNNY     70  70 100 NE3       30.06R                  
GRANBURY       SUNNY     73  70  89 CALM      30.07R                  
$$

WESTERN NORTH TEXAS
  
CITY           SKY/WX    TMP DP  RH WIND       PRES   REMARKS
WICHITA FALLS  CLEAR     70  68  93 SE5       30.06R                  
VERNON         SUNNY     69  64  85 CALM      30.08R                  
BRECKENRIDGE   SUNNY     73  71  93 SE5       30.06R                  
COMANCHE       CLEAR     70  70 100 CALM      30.07R                  
$$

CENTRAL AND SOUTH CENTRAL TEXAS
  
CITY           SKY/WX    TMP DP  RH WIND       PRES   REMARKS
AUSTIN/BERGSTM PTCLDY    72  70  93 E7        30.01R                  
WACO           CLEAR     72  71  97 N5        30.04R FOG              
HILLSBORO      SUNNY     68  68  99 N3        30.05R FOG              
TEMPLE         CLEAR     69  69 100 N5        30.04R                  
KILLEEN-GRAY   CLEAR     70  67  89 CALM      30.04R                  
FORT HOOD      CLEAR     70  68  94 N5        30.03R FOG              
GEORGETOWN     CLEAR     72  64  78 MISG      30.03R                  
LAGO VISTA     FAIR      72  69  90 N3        30.05R                  
SAN MARCOS     CLEAR     70  68  94 N6        30.02S                  
NEW BRAUNFELS  CLEAR     71  68  90 NW3       29.99R                  
RANDOLPH AFB   CLEAR     72  72 100 NW5       30.01R                  
SAN ANTONIO    CLEAR     74  70  87 NE3       30.01R                  
STINSON        PTCLDY    76  71  85 CALM      29.98R                  
PLEASANTON     NOT AVBL                                               
LA GRANGE      PTCLDY    73  72  95 CALM      29.97R                  
GIDDINGS       MOSUNNY   71  70  96 N3        30.04R                  
$$

EAST TEXAS
  
CITY           SKY/WX    TMP DP  RH WIND       PRES   REMARKS
PARIS          CLEAR     72  68  88 NE6       30.07R                  
CLARKSVILLE    NOT AVBL                                               
TYLER          CLOUDY    73  71  93 E6        30.05R                  
LONGVIEW       LGT RAIN  72  72 100 NW6       30.04R                  
PALESTINE      LGT RAIN  73  72  96 N5        30.04R                  
NACOGDOCHES    CLOUDY   N/A N/A N/A NE3       30.01R                  
$$

TEXAS HILL COUNTRY AND EDWARDS PLATEAU
  
CITY           SKY/WX    TMP DP  RH WIND       PRES   REMARKS
LLANO          SUNNY     72  72 100 CALM      30.07R                  
HORSESHOE BAY  FAIR      70  69  96 CALM      30.04R                  
KERRVILLE      CLEAR     70  69  95 CALM      30.05S FOG              
FREDERICKSBRG  CLEAR     68  66  94 CALM      30.06R                  
ROCKSPRINGS    CLOUDY    72  70  94 S5        30.10R                  
HONDO          CLOUDY    75  72  90 N3        30.01R                  
UVALDE         SUNNY     70  69  97 CALM      30.02R                  
DEL RIO        CLEAR     76  71  85 E8        29.99R                  
$$

SOUTHEAST TEXAS
  
CITY           SKY/WX    TMP DP  RH WIND       PRES   REMARKS
COLLEGE STN    CLOUDY    75  73  93 NE7       30.00R                  
CALDWELL       MOSUNNY   72  72 100 CALM      30.04R                  
CROCKETT       PTSUNNY   73  72  94 NE5       30.05R                  
BRENHAM        CLOUDY    75  74  96 N3        30.00R                  
HUNTSVILLE     CLOUDY    74  72  93 N3        30.00R FOG              
CONROE         CLOUDY    74  71  91 NE3       29.99R                  
HOUSTON BUSH   CLOUDY    75  72  90 NE3       29.97R                  
HOUSTON HOBBY  CLOUDY    76  73  91 NE8       29.95R                  
PERLAND        CLOUDY    77  74  90 NE6       29.97R                  
WHARTON        PTSUNNY   73  72  97 N6        29.96R                  
$$

THE UPPER TEXAS COAST
  
CITY           SKY/WX    TMP DP  RH WIND       PRES   REMARKS
ORANGE         CLOUDY    73  73  98 N3        29.98S                  
PORT ARTHUR    CLOUDY    75  73  93 NE7       29.95F                  
GALVESTON      PTCLDY    79  77  94 NE9       29.95R                  
ANGLETON       HVY RAIN  78  76  93 N7        29.93R FOG              
BAY CITY       MOSUNNY   74  74  98 N3        29.94R                  
$$

TEXAS COASTAL BEND, RIO GRANDE PLAINS DEEP SOUTH TEXAS
  
CITY           SKY/WX    TMP DP  RH WIND       PRES   REMARKS
VICTORIA       CLEAR     70  69  97 N5        29.96R                  
BEEVILLE       PTSUNNY   65  65 100 N3        29.97R FOG              
ROCKPORT       CLEAR     77  73  87 CALM      29.94R                  
PORT ARANSAS   CLOUDY    81  77  89 N5        29.93S                  
PORT LAVACA    SUNNY     72  72  99 CALM      29.96R                  
CORPUS CHRISTI PTCLDY    75  74  96 NW6       29.94R                  
KINGSVILLE NAS NOT AVBL                                               
COTULLA        PTCLDY    76  71  85 CALM      29.98R                  
LAREDO         CLEAR     77  74  90 E6        29.97R                  
BROWNSVILLE    CLEAR     75  74  96 CALM      29.94R                  
PORT ISABEL    CLEAR     77  74  90 CALM      29.93R                  
HEBBRONVILLE   SUNNY     73  71  95 CALM      29.98S FOG              
MCALLEN        CLEAR     80  74  81 CALM      29.95R                  
WESLACO        CLEAR     63  45  52 CALM      29.94R                  
FALFURRIAS     SUNNY     73  70  91 N3        29.95R                  
EDINBURG         N/A     75  73  91 CALM      29.95R                  
$$
  

Return to Home page


Western Regional Climate Center, wrcc@dri.edu